SIILIN Weather Reports


Display with metric or nautical units.
time (UTC)temp
F
wind
direction
speed
MPH
gust
MPH
rain 1hr
in
rain 24hr
in
rain mn
in
humidity
%
barometer
mb
20260506072724 42 253 16.0 23.0 0.00 0.00 0.00 49 1011.2
20260506070723 42 261 19.0 24.0 0.00 0.00 0.00 43 1010.9
20260506060723 40 255 12.0 16.0 0.00 0.00 0.00 56 1010.8
20260506050723 38 249 9.0 11.0 0.00 0.00 0.00 70 1010.3
20260506044723 37 227 10.0 12.0 0.00 0.00 0.00 75 1010.2
20260506042723 37 227 9.0 11.0 0.00 0.00 0.00 78 1010.0
20260506040722 36 233 10.0 13.0 0.00 0.00 0.00 77 1009.8
20260506034723 36 233 11.0 14.0 0.00 0.00 0.00 78 1009.6
20260506032722 36 232 11.0 13.0 0.00 0.00 0.00 80 1009.3
20260506030723 35 232 11.0 14.0 0.00 0.00 0.00 81 1009.1
20260506024722 36 0.0 0.0 0.00 0.00 0.00 81 1008.9
20260506022722 36 0.0 0.0 0.00 0.00 0.00 82 1008.6
20260506020722 36 255 12.0 15.0 0.00 0.00 0.00 82 1008.4
20260506014722 36 248 12.0 17.0 0.00 0.00 0.00 82 1008.3
20260506012722 36 234 12.0 14.0 0.00 0.00 0.00 84 1008.3
20260506010722 36 235 12.0 14.0 0.00 0.00 0.00 84 1008.1
20260506004722 37 224 11.0 14.0 0.00 0.00 0.00 85 1007.7
20260506002722 37 231 12.0 16.0 0.00 0.00 0.00 82 1007.7
20260506000722 37 232 10.0 13.0 0.00 0.00 0.00 80 1007.6
20260505234722 37 232 9.0 12.0 0.00 0.00 0.00 80 1007.5
20260505232722 37 233 11.0 14.0 0.00 0.00 0.00 78 1007.5
20260505230722 37 227 9.0 12.0 0.00 0.00 0.00 75 1007.5
20260505224722 38 240 12.0 14.0 0.00 0.00 0.00 73 1007.4
20260505222721 38 253 13.0 15.0 0.00 0.00 0.00 73 1007.3
20260505220722 38 250 11.0 15.0 0.00 0.00 0.00 70 1007.3
20260505214722 38 248 14.0 16.0 0.00 0.00 0.00 68 1007.2
20260505212722 39 253 13.0 16.0 0.00 0.00 0.00 66 1007.1
20260505210721 39 257 14.0 17.0 0.00 0.00 0.00 67 1006.9
20260505204721 40 258 14.0 17.0 0.00 0.00 0.00 65 1006.7
20260505202722 40 263 15.0 19.0 0.00 0.00 0.00 59 1006.5
20260505200721 40 268 15.0 19.0 0.00 0.00 0.00 60 1006.4
20260505194721 41 255 12.0 17.0 0.00 0.00 0.00 56 1006.3
20260505192721 42 261 15.0 20.0 0.00 0.00 0.00 53 1006.2
20260505190721 42 263 15.0 19.0 0.00 0.00 0.00 54 1006.0
20260505184721 43 265 15.0 19.0 0.00 0.00 0.00 51 1005.8
20260505182721 44 261 14.0 20.0 0.00 0.00 0.00 50 1005.5
20260505180721 44 256 15.0 18.0 0.00 0.00 0.00 52 1005.2
20260505174720 44 258 18.0 22.0 0.00 0.00 0.00 47 1005.0
20260505172720 45 260 18.0 22.0 0.00 0.00 0.00 46 1004.9
20260505170720 45 257 19.0 23.0 0.00 0.00 0.00 47 1004.8
20260505164720 46 263 18.0 22.0 0.00 0.00 0.00 46 1004.7
20260505162720 45 252 18.0 22.0 0.00 0.00 0.00 47 1004.5
20260505160720 45 266 16.0 22.0 0.00 0.00 0.00 50 1004.5
20260505152720 45 248 11.0 15.0 0.00 0.00 0.00 52 1004.3
20260505150720 46 282 13.0 21.0 0.00 0.00 0.00 41 1004.3
20260505124719 44 258 20.0 25.0 0.00 0.00 0.00 48 1003.6
20260505122719 44 274 17.0 23.0 0.00 0.00 0.00 54 1003.6
20260505120719 44 277 18.0 25.0 0.00 0.00 0.00 52 1003.5
20260505114719 44 247 18.0 24.0 0.00 0.00 0.00 44 1003.1
20260505112719 44 264 19.0 24.0 0.00 0.00 0.00 50 1003.1
20260505110719 44 269 21.0 26.0 0.00 0.00 0.00 53 1002.9
20260505100719 42 275 16.0 22.0 0.00 0.00 0.00 61 1002.4
20260505094718 40 258 19.0 34.0 0.00 0.00 0.00 73 1002.3
20260505092718 40 251 14.0 20.0 0.00 0.00 0.00 75 1002.2
20260505090719 41 282 13.0 18.0 0.00 0.00 0.00 70 1002.1
20260505084719 40 278 14.0 21.0 0.00 0.00 0.00 74 1001.9
20260505082719 40 270 15.0 21.0 0.00 0.00 0.00 75 1001.8
20260505080718 39 263 11.0 15.0 0.00 0.00 0.00 81 1001.7